This demonstration page uses our WeatherBlox Daily Observations layout. Learn more.

Left ArrowRight Arrow

38.89511, -77.03637

Hourly Observations for June 16, 2022

Temp ( °F °C ) Dew Point ( °F °C ) Humidity (%) Winds ( mph kmh ) Pressure ( in mb ) Visibility ( mi km ) Precip ( " mm )
12:52 am 00:52 Cloudy 78 25.6 64 17.8 62 62 SSE 13 20 30.11 1020 10 16 0.00 0.00
1:52 am 01:52 Cloudy 77 25 63 17.2 62 62 SSE 10 17 30.11 1020 10 16 0.00 0.00
2:52 am 02:52 Cloudy 77 25 61 16.1 58 58 SSE 8 13 30.11 1020 10 16 0.00 0.00
3:52 am 03:52 Cloudy 77 25 60 15.6 56 56 SSE 10 17 30.12 1020 10 16 0.00 0.00
4:52 am 04:52 Cloudy 76 24.4 60 15.6 58 58 SSE 9 15 30.12 1020 10 16 0.00 0.00
5:32 am 05:32 Cloudy with Thunderstorms 76 24.4 60 15.6 58 58 S 9 15 30.12 1020 10 16 0.00 0.00
5:52 am 05:52 Mostly Cloudy with Thunderstorms 76 24.4 60 15.6 58 58 S 14 22 30.11 1020 10 16 0.00 0.00
6:52 am 06:52 Cloudy 74 23.3 61 16.1 64 64 S 10 17 30.13 1020 10 16 0.00 0.00
7:52 am 07:52 Cloudy 74 23.3 61 16.1 64 64 S 13 20 30.14 1021 10 16 0.00 0.00
8:19 am 08:19 Cloudy 74 23.3 61 16.1 64 64 S 14 22 30.14 1021 10 16 0.00 0.00
8:37 am 08:37 Mostly Cloudy 74 23.3 61 16.1 64 64 S 16 26 30.12 1020 10 16 0.00 0.00
8:52 am 08:52 Mostly Cloudy 74 23.3 62 16.7 67 67 S 15 24 30.12 1020 10 16 0.00 0.00
9:52 am 09:52 Cloudy 75 23.9 63 17.2 66 66 S 16 26 30.13 1020 10 16 0.00 0.00
10:52 am 10:52 Mostly Cloudy 79 26.1 66 18.9 65 65 S 15 24 30.11 1020 10 16 0.00 0.00
11:52 am 11:52 Mostly Cloudy 81 27.2 66 18.9 61 61 S 14 22 30.11 1020 10 16 0.00 0.00
12:52 pm 12:52 Mostly Cloudy 82 27.8 67 19.4 60 60 S 13 20 30.10 1019 10 16 0.00 0.00
1:52 pm 13:52 Partly Cloudy 84 28.9 68 20 59 59 S 13 20 30.08 1019 10 16 0.00 0.00
2:52 pm 14:52 Mostly Cloudy 84 28.9 68 20 59 59 S 15 24 30.05 1018 10 16 0.00 0.00
3:52 pm 15:52 Mostly Cloudy 84 28.9 69 20.6 61 61 S 15 24 30.01 1016 10 16 0.00 0.00
4:52 pm 16:52 Mostly Cloudy 81 27.2 69 20.6 67 67 S 13 20 29.99 1016 10 16 0.00 0.00
5:52 pm 17:52 Mostly Cloudy with Nearby Thunderstorms 81 27.2 71 21.7 72 72 S 13 20 29.96 1015 10 16 0.00 0.00
6:05 pm 18:05 Mostly Cloudy 80 26.7 70 21.1 71 71 S 9 15 29.96 1014 10 16 0.00 0.00
6:52 pm 18:52 Mostly Cloudy 81 27.2 71 21.7 72 72 S 10 17 29.98 1015 10 16 0.00 0.00
7:52 pm 19:52 Mostly Cloudy 81 27.2 71 21.7 72 72 S 12 19 29.96 1015 10 16 0.00 0.00
8:52 pm 20:52 Mostly Cloudy 79 26.1 71 21.7 77 77 S 8 13 29.95 1014 10 16 0.00 0.00
9:52 pm 21:52 Mostly Cloudy 79 26.1 72 22.2 79 79 S 10 17 29.91 1013 10 16 0.00 0.00
10:52 pm 22:52 Cloudy 78 25.6 68 20 71 71 WSW 6 9 29.97 1015 10 16 0.00 0.00
11:52 pm 23:52 Cloudy 78 25.6 66 18.9 67 67 S 8 13 29.95 1014 10 16 0.00 0.00

Powered by AerisWeather